Hourly Weather Roundup
Issued by NWS Central Illinois

Home | Current Version | Previous Version | Text Only | Print | Product List | Glossary On
Versions: 1 2 3 4 5 6 7 8 9 10 11 12 13 14 15 16 17 18 19 20 21 22 23 24 25 26 27 28 29 30 31 32 33 34 35 36 37 38 39 40 41 42 43 44 45 46 47 48 49 50
000
NZUS43 KILX 022110
HWRILX

AREA WEATHER ROUNDUP
NATIONAL WEATHER SERVICE, LINCOLN IL
400 PM CDT TUE SEP 02 2014


CITY           SKY/WX    TMP DP  RH WIND       PRES   REMARKS
BLOOMINGTON    MOSUNNY   81  63  54 W12       29.95F HX  82
CHAMPAIGN      PTSUNNY   80  68  66 W9        29.95S HX  83
DECATUR        PTSUNNY   80  66  62 W7        29.95F HX  82
FLORA          PTSUNNY   79  69  71 NW6       29.96F HX  82
GALESBURG      SUNNY     83  64  53 W9        29.94F HX  84
JACKSONVILLE   PTSUNNY   83  67  59 W9        29.95F HX  86
LACON          MOSUNNY   82  60  48 W9        29.92F HX  82
LAWRENCEVILLE  PTSUNNY   79  70  74 NW10      29.94F HX  82
LITCHFIELD     PTSUNNY   78  67  69 MISG      29.96F HX  80
$$


CITY           SKY/WX    TMP DP  RH WIND       PRES   REMARKS
LINCOLN        MOSUNNY   84  64  50 W6        29.90F HX  85
MACOMB         MOSUNNY   80  63  55 W9        29.96F HX  82
MATTOON        PTSUNNY   79  67  66 W8        29.95F HX  81
MT CARMEL AP   PTSUNNY   81  72  74 NW8       29.95F HX  84
OLNEY-NOBLE AP CLOUDY    77  70  78 CALM      29.95F
PARIS          PTSUNNY   79  69  70 W8        29.96S HX  82
PEORIA         MOSUNNY   84  62  47 W8        29.93F HX  85
PONTIAC        SUNNY     82  63  51 W9        29.93S HX  83
RANTOUL        PTSUNNY   81  65  57 W10G16    29.94F HX  83
ROBINSON       PTSUNNY   81  73  76 W9        29.95F HX  85
SPRINGFIELD    PTSUNNY   83  67  58 VRB5      29.94F HX  85
TAYLORVILLE    PTSUNNY   77  68  73 W3        29.95F
$$

...REGIONAL REPORTS...


CITY           SKY/WX    TMP DP  RH WIND       PRES   REMARKS
CHICAGO O`HARE MOSUNNY   81  55  40 NW13      29.90S HX  81
KANKAKEE       SUNNY     81  64  57 W9        29.92F HX  82
MOLINE         MOSUNNY   79  61  53 W12       29.93S HX  80
MOUNT VERNON   PTSUNNY   79  70  73 N6        29.95F HX  81
PITTSFIELD     PTSUNNY   81  65  57 W6        29.96F HX  83
QUINCY         PTSUNNY   82  64  54 W9        29.95F HX  83
ROCKFORD       MOSUNNY   79  60  52 W12       29.93S HX  80
$$


CITY           SKY/WX    TMP DP  RH WIND       PRES   REMARKS
BURLINGTON     MOSUNNY   81  63  54 W9        29.94F HX  82
CEDAR RAPIDS   MOSUNNY   79  61  53 W12       29.95R HX  80
DES MOINES     MOSUNNY   80  58  46 W9        29.96S HX  80
KIRKSVILLE     MOSUNNY   82  63  52 W8        29.97F HX  83
OTTUMWA        SUNNY     79  61  53 W9        29.95F HX  80
ST LOUIS       PTSUNNY   83  68  60 NW9       29.96F HX  86
$$


CITY           SKY/WX    TMP DP  RH WIND       PRES   REMARKS
TERRE HAUTE    PTSUNNY   79  68  69 NW9       29.94F HX  81
EVANSVILLE     PTSUNNY   85  72  65 NW8       29.92F HX  91
INDIANAPOLIS   PTSUNNY   76  66  71 W10       29.93F
LAFAYETTE      CLOUDY    76  67  73 W6        29.92F
MADISON        MOSUNNY   78  56  46 NW8       29.91S
MILWAUKEE      MOSUNNY   79  55  43 SW14G20   29.90S
$$





USA.gov is the U.S. government's official web portal to all federal, state and local government web resources and services.